Weather History for KLXN - January, 2012

Change the Weather History Date:

Thursday, January 12, 2012

  Actual Average Record
Temperature  
Mean Temperature 19 °F -  
Max Temperature 29 °F 37 °F 60 °F (2000)
Min Temperature 9 °F 13 °F -14 °F (2011)
Degree Days  
Heating Degree Days 46    
Moisture  
Dew Point -7 °F    
Average Humidity 36    
Maximum Humidity 61    
Minimum Humidity 15    
Precipitation  
Precipitation 0.00 in - - ()
Sea Level Pressure  
Sea Level Pressure 30.05 in    
Wind  
Wind Speed 24 mph (NNW)    
Max Wind Speed 31 mph    
Max Gust Speed 38 mph    
Visibility 10 miles    
Events      
Averages and records for this station are not official NWS values.
T = Trace of Precipitation, MM = Missing Value Source: NWS Daily Summary

Daily Weather History Graph

Daily Weather History Graph

Search for Another Location

Airport or City:

Trip Planner

Search our weather history database for the weather conditions in past years. The results will help you decide how hot, cold, wet, or windy it might be!

Date:

Astronomy

Jan. 12, 2012 Rise Set
Actual Time 8:02 AM CST 5:32 PM CST
Civil Twilight 7:32 AM CST 6:02 PM CST
Nautical Twilight 6:58 AM CST 6:36 PM CST
Astronomical Twilight 6:25 AM CST 7:09 PM CST
Moon 9:41 PM CST (1/12) 9:45 AM CST (1/12)
Length of Visible Light 10h 30m
Length of Day
9h 30m
Waning Gibbous, 87% of the Moon is Illuminated
Jan 12
Waning Gibbous
Jan 16
Last Quarter
Jan 23
New
Jan 30
First Quarter
Feb 7
Full

Hourly Weather History & Observations

Time (CST) Temp. Windchill Dew Point Humidity Pressure Visibility Wind Dir Wind Speed Gust Speed Precip Events Conditions
12:15 AM 18.1 °F -1.5 °F 1.8 °F 49% 30.08 in 10.0 mi NNW 31.1 mph 38.0 mph N/A   Overcast
12:35 AM 17.4 °F -1.2 °F 3.2 °F 54% 30.08 in 10.0 mi NNW 26.5 mph 33.4 mph N/A   Mostly Cloudy
12:55 AM 16.9 °F -0.9 °F 4.5 °F 58% 30.07 in 10.0 mi NNW 23.0 mph 29.9 mph N/A   Mostly Cloudy
1:15 AM 16.7 °F -1.5 °F 5.2 °F 61% 30.07 in 10.0 mi NNW 24.2 mph 34.5 mph N/A   Mostly Cloudy
1:35 AM 16.7 °F -1.1 °F 3.2 °F 55% 30.07 in 10.0 mi NNW 23.0 mph 29.9 mph N/A   Overcast
1:55 AM 16.7 °F -1.5 °F 1.0 °F 50% 30.07 in 10.0 mi NNW 24.2 mph 36.8 mph N/A   Overcast
2:15 AM 16.3 °F -3.9 °F 0.5 °F 50% 30.07 in 10.0 mi NNW 31.1 mph 35.7 mph N/A   Scattered Clouds
2:35 AM 15.6 °F -3.3 °F 0.5 °F 51% 30.07 in 10.0 mi NNW 25.3 mph 28.8 mph N/A   Clear
2:55 AM 15.4 °F -4.2 °F -0.0 °F 51% 30.08 in 10.0 mi NW 27.6 mph 34.5 mph N/A   Clear
3:15 AM 14.7 °F -4.5 °F -0.0 °F 52% 30.08 in 10.0 mi NNW 25.3 mph 29.9 mph N/A   Clear
3:35 AM 14.5 °F -5.1 °F -0.4 °F 52% 30.07 in 10.0 mi NNW 26.5 mph 31.1 mph N/A   Clear
3:55 AM 14.0 °F -3.9 °F -0.0 °F 54% 30.07 in 10.0 mi NNW 20.7 mph - N/A   Clear
4:15 AM 13.6 °F -4.8 °F -0.4 °F 54% 30.07 in 10.0 mi NNW 21.9 mph 26.5 mph N/A   Clear
4:35 AM 13.1 °F -6.3 °F -0.9 °F 54% 30.07 in 10.0 mi NNW 24.2 mph 27.6 mph N/A   Clear
4:55 AM 12.7 °F -4.1 °F -0.8 °F 55% 30.07 in 10.0 mi NNW 17.3 mph - N/A   Clear
5:15 AM 12.0 °F -5.1 °F -1.3 °F 55% 30.07 in 10.0 mi NW 17.3 mph - N/A   Clear
5:35 AM 12.2 °F -6.3 °F -1.8 °F 53% 30.07 in 10.0 mi NW 20.7 mph 27.6 mph N/A   Clear
5:55 AM 12.0 °F -6.5 °F -3.3 °F 50% 30.07 in 10.0 mi NNW 20.7 mph 29.9 mph N/A   Clear
6:15 AM 11.8 °F -6.3 °F -3.8 °F 50% 30.08 in 10.0 mi NW 19.6 mph 25.3 mph N/A   Clear
6:35 AM 11.3 °F -7.4 °F -3.6 °F 51% 30.08 in 10.0 mi NNW 20.7 mph 28.8 mph N/A   Clear
6:55 AM 11.3 °F -7.9 °F -4.9 °F 48% 30.08 in 10.0 mi NNW 21.9 mph 28.8 mph N/A   Clear
7:15 AM 10.6 °F -7.4 °F -5.8 °F 48% 30.08 in 10.0 mi NW 18.4 mph - N/A   Clear
7:35 AM 10.4 °F -10.3 °F -8.7 °F 42% 30.08 in 10.0 mi NW 25.3 mph 31.1 mph N/A   Clear
7:55 AM 10.0 °F -9.1 °F -9.4 °F 41% 30.07 in 10.0 mi NW 20.7 mph 25.3 mph N/A   Clear
8:15 AM 9.9 °F -11.4 °F -10.5 °F 40% 30.07 in 10.0 mi NW 26.5 mph 31.1 mph N/A   Clear
8:35 AM 10.0 °F -11.1 °F -11.2 °F 38% 30.07 in 10.0 mi NW 26.5 mph 29.9 mph N/A   Clear
8:55 AM 10.6 °F -9.7 °F -12.3 °F 35% 30.07 in 10.0 mi NW 24.2 mph 32.2 mph N/A   Clear
9:15 AM 11.7 °F -7.8 °F -13.5 °F 32% 30.08 in 10.0 mi NW 23.0 mph 31.1 mph N/A   Clear
9:35 AM 12.9 °F -6.5 °F -14.1 °F 29% 30.08 in 10.0 mi NW 24.2 mph 31.1 mph N/A   Clear
9:55 AM 14.7 °F -5.2 °F -13.7 °F 27% 30.08 in 10.0 mi NW 27.6 mph 32.2 mph N/A   Clear
10:15 AM 16.0 °F -2.8 °F -14.3 °F 25% 30.07 in 10.0 mi NW 25.3 mph 32.2 mph N/A   Clear
10:35 AM 17.1 °F -1.4 °F -15.5 °F 23% 30.08 in 10.0 mi NNW 25.3 mph 32.2 mph N/A   Clear
10:55 AM 18.5 °F 0.9 °F -14.8 °F 22% 30.08 in 10.0 mi NNW 24.2 mph 34.5 mph N/A   Clear
11:15 AM 19.8 °F 1.9 °F -13.7 °F 22% 30.07 in 10.0 mi NW 26.5 mph 32.2 mph N/A   Clear
11:35 AM 20.5 °F 2.9 °F -13.5 °F 22% 30.06 in 10.0 mi NW 26.5 mph 33.4 mph N/A   Clear
11:55 AM 21.2 °F 3.5 °F -13.7 °F 21% 30.06 in 10.0 mi NW 27.6 mph 35.7 mph N/A   Clear
12:15 PM 22.6 °F 5.8 °F -13.0 °F 20% 30.04 in 10.0 mi NW 26.5 mph 32.2 mph N/A   Clear
12:35 PM 23.7 °F 7.2 °F -14.1 °F 18% 30.04 in 10.0 mi NNW 26.5 mph - N/A   Clear
12:55 PM 25.2 °F 10.4 °F -14.1 °F 17% 30.03 in 10.0 mi NNW 21.9 mph 29.9 mph N/A   Clear
1:15 PM 25.7 °F 10.2 °F -14.8 °F 16% 30.02 in 10.0 mi NW 25.3 mph 29.9 mph N/A   Clear
1:35 PM 26.4 °F 11.2 °F -14.6 °F 16% 30.02 in 10.0 mi NW 25.3 mph 32.2 mph N/A   Clear
1:55 PM 27.3 °F 12.1 °F -15.5 °F 15% 30.02 in 10.0 mi NNW 26.5 mph 32.2 mph N/A   Clear
2:15 PM 27.9 °F 13.1 °F -14.8 °F 15% 30.01 in 10.0 mi NNW 25.3 mph 33.4 mph N/A   Clear
2:35 PM 28.4 °F 13.5 °F -14.4 °F 15% 30.01 in 10.0 mi NNW 26.5 mph 35.7 mph N/A   Clear
2:55 PM 28.8 °F 15.9 °F -14.4 °F 15% 30.00 in 10.0 mi NNW 19.6 mph 32.2 mph N/A   Clear
3:15 PM 29.3 °F 15.9 °F -13.9 °F 15% 30.00 in 10.0 mi NNW 21.9 mph 32.2 mph N/A   Clear
3:35 PM 29.3 °F 15.3 °F -13.9 °F 15% 30.00 in 10.0 mi NNW 24.2 mph - N/A   Clear
4:15 PM 29.7 °F 17.1 °F -8.0 °F 19% 30.01 in 10.0 mi NNW 19.6 mph - N/A   Clear
4:35 PM 29.3 °F 17.0 °F -6.5 °F 21% 30.01 in 10.0 mi NNW 18.4 mph - N/A   Clear
4:55 PM 28.8 °F 17.9 °F -4.9 °F 23% 30.02 in 10.0 mi NNW 13.8 mph - N/A   Clear
5:15 PM 27.5 °F 16.8 °F -3.6 °F 26% 30.01 in 10.0 mi NNW 12.7 mph - N/A   Clear
5:35 PM 26.2 °F 16.4 °F -2.2 °F 29% 30.01 in 10.0 mi NNW 10.4 mph - N/A   Clear
5:55 PM 23.4 °F 14.3 °F -2.0 °F 33% 30.00 in 10.0 mi NNW 8.1 mph - N/A   Clear
6:15 PM 22.5 °F 11.7 °F -2.2 °F 34% 30.02 in 10.0 mi NNW 10.4 mph - N/A   Clear
6:35 PM 20.8 °F 11.2 °F -0.2 °F 40% 30.02 in 10.0 mi North 8.1 mph - N/A   Clear
6:55 PM 18.7 °F 10.6 °F -0.2 °F 44% 30.02 in 10.0 mi North 5.8 mph - N/A   Clear
7:15 PM 18.9 °F 10.8 °F -0.8 °F 42% 30.03 in 10.0 mi NNW 5.8 mph - N/A   Clear
7:35 PM 15.4 °F 8.1 °F -0.2 °F 50% 30.03 in 10.0 mi NNW 4.6 mph - N/A   Clear
7:55 PM 15.4 °F 8.1 °F 0.7 °F 52% 30.04 in 10.0 mi NNW 4.6 mph - N/A   Clear
8:15 PM 14.7 °F 3.8 °F 2.1 °F 57% 30.03 in 10.0 mi North 8.1 mph - N/A   Clear
8:55 PM 13.6 °F 6.0 °F 3.0 °F 63% 30.04 in 10.0 mi NNW 4.6 mph - N/A   Clear
9:15 PM 13.1 °F 4.0 °F 3.0 °F 64% 30.04 in 10.0 mi NW 5.8 mph - N/A   Clear
9:35 PM 15.4 °F 4.6 °F 5.4 °F 64% 30.04 in 10.0 mi West 8.1 mph - N/A   Scattered Clouds
9:55 PM 16.7 °F 8.3 °F 4.6 °F 59% 30.04 in 10.0 mi West 5.8 mph - N/A   Scattered Clouds
10:15 PM 15.6 °F 5.9 °F 5.0 °F 63% 30.04 in 10.0 mi West 6.9 mph - N/A   Clear
10:35 PM 16.3 °F 9.2 °F 5.0 °F 61% 30.04 in 10.0 mi West 4.6 mph - N/A   Clear
10:55 PM 15.4 °F 6.8 °F 5.7 °F 65% 30.04 in 10.0 mi West 5.8 mph - N/A   Scattered Clouds
11:15 PM 15.6 °F 8.3 °F 6.6 °F 68% 30.04 in 10.0 mi West 4.6 mph - N/A   Mostly Cloudy
11:35 PM 16.7 °F 9.6 °F 5.9 °F 63% 30.05 in 10.0 mi West 4.6 mph - N/A   Mostly Cloudy
11:55 PM 16.5 °F 9.4 °F 5.7 °F 63% 30.04 in 10.0 mi West 4.6 mph - N/A   Mostly Cloudy